Location: Newark
(54.6833°N, 25.2833°E)
Time: 20:33:52
(UTC+00:00)

Altair - Pass Details

Date: 17 November 2019
Orbit: 1502 x 1682 km, 47.2° (Epoch: 05 December)

Event Time Altitude Azimuth Distance (km) Brightness Sun altitude
Rises 02:51:15 0° 234° (SW) 4,632 - -25.7°
Reaches altitude 10° 02:54:24 10° 228° (SW) 3,650 - -25.3°
Exits shadow 02:57:30 23° 218° (SW) 2,771 8.5 -24.8°
Maximum altitude 03:02:56 46° 159° (SSE) 1,947 8.1 -24.0°
Drops below altitude 10° 03:11:37 10° 91° (E) 3,712 10.6 -22.8°
Sets 03:14:50 0° 86° (E) 4,717 11.5 -22.3°
